Location: Blackwater
(38.5459°N, 75.1621°W)
Time: 04:21:09
(UTC+00:00)

Daily predictions for brighter satellites

Satellite Brightness Start Highest point End
(mag) Time Altitude Azimuth Time Altitude Azimuth Time Altitude Azimuth
Cosmos 372 Rocket 4.0 00:00:57 10° SSW 00:06:12 90° NW 00:11:28 10° NNE
Cosmos 1536 Rocket 4.4 00:02:29 10° NNE 00:06:25 30° ENE 00:08:22 21° ESE
Cosmos 2263 Rocket 4.0 00:03:02 10° WSW 00:07:59 33° WNW 00:13:00 10° N
Cosmos 1464 Rocket 3.9 00:02:30 10° S 00:08:34 70° E 00:14:41 10° NNE
Cosmos 1844 4.1 00:03:58 10° S 00:09:15 41° ESE 00:14:31 10° NE
Cosmos 1025 Rocket 3.3 00:07:25 10° N 00:11:39 45° E 00:14:53 16° SSE
USA 186 2.7 00:11:48 28° ENE 00:11:48 28° ENE 00:14:35 10° NNE
BREEZE-M DEB (TANK) 3.1 00:09:25 10° SW 00:12:14 90° NNW 00:20:11 10° NE
Cosmos 1844 Rocket 2.7 00:08:36 10° S 00:14:00 57° ESE 00:19:28 10° NNE
Cosmos 1867 3.5 00:11:31 10° NNW 00:17:00 77° ENE 00:21:02 19° SE
ISS -1.6 00:16:57 10° W 00:19:47 24° NNW 00:22:36 10° NNE
Cosmos 2151 Rocket 3.5 00:17:01 10° S 00:21:24 65° E 00:25:50 10° NNE
USA 234 3.5 00:18:08 10° ENE 00:24:21 44° SE 00:30:32 10° SSW
Cosmos 2150 Rocket 4.0 00:20:31 10° SSW 00:25:51 84° ESE 00:31:19 10° NNE
IRIS 3.9 00:26:30 10° WSW 00:30:08 73° SSE 00:30:10 72° SSE
Cosmos 1125 Rocket 3.5 00:25:00 10° S 00:30:11 60° ESE 00:35:25 10° NNE
Cosmos 1943 4.5 00:25:43 10° NW 00:30:58 41° WSW 00:36:13 10° S
CZ-2C R/B 1.4 00:28:59 10° W 00:32:26 43° S 00:32:43 42° S
DMSP B5D2-2 4.1 00:32:24 10° NNE 00:37:38 58° E 00:42:49 10° S
Exosat Rocket 3.6 00:32:18 10° S 00:38:14 65° ESE 00:43:13 10° NNE
NOSS 3-4 (A) 3.6 00:34:25 10° S 00:39:51 41° ESE 00:42:16 28° ENE
NOSS 3-4 (C) 3.6 00:34:33 10° S 00:39:57 41° ESE 00:41:55 31° ENE
Cosmos 468 4.4 00:45:46 10° NNW 00:51:07 79° ENE 00:52:48 45° SSE
Meteor 1-15 Rocket 4.1 00:47:29 10° S 00:53:04 88° E 00:58:49 10° N
Cosmos 1674 3.4 00:51:15 10° N 00:54:01 44° NNE 00:54:01 44° NNE
Resurs 01 Rocket 3.4 00:59:15 20° NNE 00:59:15 20° NNE 01:01:04 10° N
H-2A R/B 3.5 00:53:18 10° SSW 00:57:46 34° W 01:02:22 10° NNW
IRS-1A Rocket 4.3 00:55:43 26° SSE 00:59:15 85° WSW 01:05:09 10° NNW
Cosmos 1048 Rocket 4.0 00:56:26 10° NNW 01:01:48 87° WSW 01:03:09 52° SSE
ATLAS 2AS CENTAUR R/B 3.0 00:54:35 10° SSW 01:02:16 60° ESE 01:10:03 10° NE
Nadezhda 4 Rocket 4.0 00:57:14 10° N 01:03:21 75° W 01:07:55 19° S
BREEZE-M TANK 3.7 00:55:01 10° W 01:03:58 51° NNW 01:05:14 37° NNE
CENTAUR R/B 3.3 01:03:47 10° NNW 01:11:56 62° NE 01:14:15 48° ESE
NOAA 14 4.5 01:13:11 76° ESE 01:13:24 78° ENE 01:18:53 10° N
Okean 1 Rocket 3.4 01:16:18 66° WNW 01:16:18 66° WNW 01:20:31 10° N
Ariane Rocket 3.7 01:16:43 33° SSW 01:18:39 51° W 01:23:36 10° NNW
ATLAS 3B R/B 3.9 01:14:13 10° NNW 01:19:49 26° NE 01:20:03 26° NE
OBJECT-B 3.8 01:23:19 13° NNW 01:23:19 13° NNW 01:23:39 10° NNW
Cosmos 2082 Rocket 4.3 01:22:10 10° NNE 01:23:32 13° NNE 01:23:32 13° NNE
Cosmos 494 Rocket 4.1 01:21:59 10° NNW 01:26:50 73° NW 01:26:50 73° NW
USA 238 DEB 3.9 01:20:19 10° NW 01:27:38 79° WSW 01:29:17 58° SSE
USA 238 3.8 01:20:26 10° NW 01:27:45 80° WSW 01:29:22 58° SSE
Meteor 2-5 Rocket 3.7 01:22:27 10° N 01:27:52 82° N 01:27:52 82° N
Meteor 1-22 Rocket 4.3 01:32:16 76° N 01:32:16 76° N 01:37:48 10° N
CZ-2C R/B 4.1 01:29:36 10° N 01:34:40 37° WNW 01:39:46 10° SW
Cosmos 1634 Rocket 4.1 01:37:16 58° SW 01:38:26 73° W 01:44:38 10° N
COSMOS 2406 4.4 01:34:50 10° N 01:38:13 32° NNE 01:38:13 32° NNE
SPOT 3 Rocket 4.3 01:44:55 50° NW 01:44:55 50° NW 01:48:48 10° NNW
Meteor 1-24 Rocket 4.3 01:40:21 10° N 01:44:32 53° NNW 01:44:32 53° NNW
USA 234 3.9 02:04:40 33° NNE 02:07:22 52° NW 02:13:40 10° WSW
ATLAS 2AS CENTAUR R/B 4.3 02:46:33 10° WSW 02:53:41 35° NW 03:00:49 10° NNE
CENTAUR R/B 4.4 02:55:07 10° NW 03:01:27 33° W 03:01:27 33° W
ATLAS 3B R/B 4.3 03:04:11 10° NW 03:07:18 29° NW 03:07:18 29° NW
Cosmos 1980 Rocket 4.2 07:10:59 24° ENE 07:10:59 24° ENE 07:13:35 10° NE
ADEOS II 4.2 07:26:29 10° NNE 07:28:11 21° N 07:28:11 21° N
ARIANE 5 R/B 4.3 07:29:55 10° NNE 07:32:22 27° NE 07:32:22 27° NE
IDEFIX/ARIANE 42P 4.0 07:35:41 10° NNE 07:39:15 35° ENE 07:39:15 35° ENE
SJ 16-02 4.1 07:48:48 10° NNE 07:51:36 16° ENE 07:54:23 10° E
Lacrosse 5 3.6 08:06:13 25° N 08:06:13 25° N 08:09:02 10° NNE
Cosmos 2278 4.4 08:08:13 46° N 08:08:13 46° N 08:12:20 10° NNE
X-37B 3.8 08:18:53 14° NE 08:18:53 14° NE 08:19:35 10° ENE
NOSS 3-3 (A) 3.7 08:19:03 87° ENE 08:19:03 87° ENE 08:25:18 10° NNE
NOSS 3-3 (C) 3.7 08:19:13 86° ENE 08:19:13 86° ENE 08:25:23 10° NNE
USA 267 3.7 08:15:39 10° NE 08:21:49 46° NW 08:22:28 45° NW
Cosmos 1339 Rocket 4.4 08:29:39 48° S 08:31:36 87° E 08:37:50 10° N
Spot 4 Rocket 4.2 08:30:41 10° N 08:35:06 57° NW 08:35:06 57° NW
Meteor 2-7 Rocket 4.5 08:37:37 67° SSW 08:38:22 84° W 08:43:53 10° N
SL-8 R/B 4.5 08:39:54 37° NNW 08:41:16 48° NNE 08:45:53 10° E
ADEOS Rocket 4.4 08:35:17 10° SE 08:41:36 41° ENE 08:47:21 10° N
Cosmos 921 Rocket 3.7 08:43:18 43° N 08:43:18 43° N 08:46:17 10° N
Cosmos 2360 Rocket 4.2 08:37:55 10° SSE 08:42:29 26° ESE 08:47:04 10° NE
Cosmos 1812 3.3 08:46:42 50° N 08:46:42 50° N 08:49:37 10° N
MSX 3.7 08:40:01 10° N 08:45:45 71° WNW 08:47:06 52° SW
CZ-4C R/B 4.4 08:47:18 33° N 08:47:18 33° N 08:49:23 10° N
Cosmos 1697 Rocket 4.4 08:48:35 18° NW 08:48:35 18° NW 08:51:29 10° N
Timation 1 Rocket 4.3 08:42:28 10° NNW 08:48:20 58° WSW 08:54:11 10° S
Cosmos 1500 4.2 08:45:09 10° N 08:47:33 37° N 08:47:33 37° N
Cosmos 1707 Rocket 4.3 08:49:21 17° SSE 08:52:26 51° E 08:56:38 10° NNE
Cosmos 1980 Rocket 3.1 08:52:46 30° NW 08:52:46 30° NW 08:57:27 10° N
USA 234 3.4 08:48:02 10° ESE 08:54:30 73° NE 09:01:01 10° NW
Cosmos 1666 4.0 08:50:57 10° N 08:54:33 40° E 08:58:07 10° SSE
IRIDIUM 114 4.3 08:53:04 10° N 08:58:19 85° E 09:03:32 10° S
Cosmos 2322 Rocket 2.4 08:55:32 23° S 08:59:09 71° ESE 09:04:50 10° NNE
BREEZE-M DEB (TANK) 3.3 08:55:57 35° WSW 08:59:26 84° NNW 09:03:01 10° ENE
BREEZE-M DEB (TANK) 4.0 09:01:04 27° NNW 09:01:27 28° N 09:06:14 10° NE
Cosmos 2263 Rocket 2.1 08:56:53 10° NNW 09:02:35 90° ENE 09:08:16 10° SSE
IRIDIUM 103 4.2 09:02:13 10° N 09:07:27 79° W 09:12:39 10° S
SL-16 R/B 2.1 09:05:31 30° SSW 09:08:26 78° WNW 09:14:08 10° NNE
Cosmos 2228 Rocket 4.0 09:09:42 30° NW 09:09:42 30° NW 09:12:48 10° NNW
SL-4 R/B 2.2 09:08:18 49° WSW 09:09:30 81° NW 09:14:16 10° NE
FALCON 9 DEB 3.0 09:10:01 68° NW 09:10:02 68° NW 09:13:27 10° NE
Cosmos 1937 Rocket 4.5 09:05:41 10° N 09:10:39 47° ENE 09:15:35 10° SE
Cosmos 1934 Rocket 4.5 09:06:38 10° NNW 09:11:59 34° W 09:12:49 33° WSW
ARIANE 5 R/B 4.1 09:10:03 10° NNW 09:12:41 18° NW 09:12:41 18° NW
ADEOS 4.2 09:10:34 10° NNE 09:15:43 57° E 09:20:49 10° S
Meteor 1-4 Rocket 2.9 09:16:31 42° NW 09:16:31 42° NW 09:19:26 10° N
Cosmos 841 Rocket 4.0 09:11:02 10° S 09:16:08 60° ESE 09:21:18 10° NNE
Cosmos 44 Rocket 3.8 09:12:56 15° S 09:16:39 55° ESE 09:21:20 10° NE
IDEFIX/ARIANE 42P 3.8 09:15:56 10° NNW 09:19:58 23° WNW 09:20:03 23° WNW
CZ-2C R/B 2.5 09:15:04 10° N 09:20:11 69° WNW 09:24:58 12° SSW
Cosmos 1869 Rocket 3.6 09:16:17 10° NNW 09:20:27 48° W 09:24:37 10° SSW
Meteor 1-10 Rocket 4.4 09:17:09 23° SW 09:20:32 51° WNW 09:26:15 10° N
Cosmos 2227 4.2 09:16:10 10° NNW 09:21:41 58° WSW 09:27:10 10° S
ERBS 4.0 09:22:46 20° NW 09:22:46 20° NW 09:25:17 10° NNE
CZ-2C R/B 4.3 09:19:48 10° NNW 09:21:45 20° NW 09:21:45 20° NW
Cosmos 1763 Rocket 3.6 09:21:34 24° SW 09:24:39 57° WNW 09:29:54 10° N
IRIDIUM 106 4.4 09:20:40 10° NNW 09:25:43 52° W 09:30:46 10° SSW
Cosmos 1862 Rocket 4.1 09:22:17 10° S 09:26:37 59° E 09:30:55 10° NNE
SJ-6F 4.4 09:25:36 10° NNE 09:29:43 88° E 09:33:47 10° SSW
SJ 16-02 1.6 09:26:14 10° NNW 09:30:22 42° WSW 09:34:31 10° S
Cosmos 967 Rocket 4.5 09:27:03 17° SW 09:32:11 71° WNW 09:38:36 10° NNE
PSLV R/B 3.9 09:28:38 10° N 09:32:34 41° WNW 09:34:43 23° SW
CZ-4B R/B 1.5 09:30:58 10° SSE 09:34:04 69° ENE 09:37:16 10° N
H-2A R/B 2.7 09:30:42 10° SSW 09:34:37 33° W 09:38:39 10° NNW
Meteor 1-5 Rocket 4.5 09:30:29 10° NNW 09:35:24 39° W 09:40:25 10° SSW
DEBRIS 2.8 09:34:58 21° NW 09:36:45 89° NE 09:43:29 10° SE
Cosmos 1570 Rocket 4.0 09:33:06 10° SSW 09:38:24 86° WNW 09:43:47 10° NNE
Cosmos 1689 Rocket 4.2 09:41:06 10° SE 09:43:44 30° ENE 09:46:24 10° N
ERS-2 2.7 09:44:15 10° SSW 09:47:37 35° W 09:51:01 10° NNW
Cosmos 2333 Rocket 3.8 09:43:47 10° S 09:49:00 37° ESE 09:54:15 10° NE
Lacrosse 5 4.2 09:47:42 10° NNW 09:49:02 11° NNW 09:50:23 10° N
Cosmos 2016 Rocket 4.3 09:43:43 10° N 09:49:49 69° E 09:55:52 10° SSE
Cosmos 1000 Rocket 4.4 09:43:46 10° SSW 09:49:56 69° W 09:56:06 10° N
Okean 1 4.1 09:47:01 10° S 09:50:59 56° E 09:54:57 10° NNE
Cosmos 990 Rocket 4.2 09:46:16 10° NNW 09:51:11 44° WSW 09:56:07 10° S
Cosmos 540 Rocket 3.5 09:46:15 10° SSW 09:51:21 64° WNW 09:56:31 10° NNE
Meteor 2-20 4.4 09:45:43 10° S 09:51:51 86° W 09:58:00 10° N
CZ-4B R/B 3.7 09:50:27 10° NNE 09:53:58 47° E 09:57:24 10° S
X-37B 1.3 09:51:10 12° NW 09:53:58 50° NNE 09:57:04 10° E
CZ-4B R/B 4.1 09:51:26 10° N 09:55:49 84° WNW 10:00:16 10° SSW
Cosmos 2322 4.4 09:51:52 10° S 09:57:24 58° ESE 10:02:56 10° NNE
ALOS 2.2 09:55:23 10° N 10:00:01 69° WNW 10:04:39 10° SSW
Cosmos 1484 Rocket 2.9 09:56:14 10° N 10:00:10 58° WNW 10:04:06 10° SSW
COSMO-SKYMED 1 3.5 09:57:18 10° SSE 10:01:31 53° ENE 10:05:45 10° N
NOSS 3-4 (A) 4.1 09:57:28 10° NNW 10:04:40 82° ENE 10:12:36 10° SE
NOSS 3-4 (C) 4.1 09:57:35 10° NNW 10:04:47 81° ENE 10:12:43 10° SE
Cosmos 1536 3.5 10:03:59 10° NNW 10:07:38 32° W 10:11:15 10° SSW
Cosmos 1725 Rocket 4.1 10:03:28 10° N 10:09:41 82° E 10:15:51 10° S
Meteor 1-31 Rocket 2.9 10:07:59 10° N 10:11:42 50° WNW 10:15:26 10° SSW
Cosmos 1437 Rocket 2.7 10:09:09 10° SSW 10:12:53 61° W 10:16:41 10° N
Cosmos 2333 4.4 10:09:25 10° SSW 10:15:11 84° ESE 10:21:00 10° NNE
Cosmos 2100 Rocket 4.3 10:10:03 10° NNW 10:16:03 45° W 10:22:01 10° SSW
PSLV R/B 4.0 10:12:17 10° SSE 10:16:20 84° ENE 10:20:25 10° NNW
Cosmos 1544 3.3 10:13:00 10° N 10:16:36 75° E 10:20:10 10° SSE
USA 281 4.4 10:13:23 10° NE 10:19:41 47° ESE 10:25:57 10° S
deb Chang Zheng 4 4.5 10:16:42 10° N 10:20:21 28° WNW 10:23:59 10° SW
Cosmos 1802 Rocket 4.1 10:15:25 10° NNW 10:21:26 54° W 10:27:31 10° SSW
Cosmos 1703 Rocket 3.6 10:17:54 10° S 10:22:12 85° E 10:26:34 10° N
SL-8 R/B 4.3 10:19:19 10° WNW 10:23:45 39° SW 10:28:10 10° SSE
Cosmos 1908 Rocket 3.6 10:20:11 10° N 10:24:41 89° WSW 10:29:09 10° S
METEOR-M 4.3 10:20:08 10° N 10:25:19 51° WNW 10:30:27 10° SW
Cosmos 1515 3.6 10:21:54 10° SSW 10:25:40 68° W 10:29:26 10° N
Cosmos 2360 Rocket 2.7 10:20:53 10° SW 10:26:12 41° WNW 10:31:34 10° N
ADEOS Rocket 3.8 10:21:00 10° SSW 10:27:04 32° W 10:32:42 10° NW
Cosmos 2298 Rocket 4.3 10:22:23 10° NNW 10:27:42 77° ENE 10:32:59 10° SSE
ATLAS 2AS CENTAUR R/B 2.8 10:21:13 10° NW 10:28:37 85° WSW 10:35:21 10° SSE
